| time (UTC) | temp C | wind direction | speed KPH | gust KPH | rain 1hr cm | rain 24hr cm | rain mn cm | humidity % | barometer mb |
| 20260510040803 | 11 | 172 | 3.2 | 3.2 | 0.00 | 0.00 | 0.00 | 34 | 730.4 |
| 20260510040303 | 11 | 177 | 3.2 | 4.8 | 0.00 | 0.00 | 0.00 | 34 | 730.4 |
| 20260510035803 | 11 | 179 | 4.8 | 4.8 | 0.00 | 0.00 | 0.00 | 34 | 730.4 |
| 20260510035306 | 11 | 161 | 3.2 | 4.8 | 0.00 | 0.00 | 0.00 | 35 | 730.4 |
| 20260510034803 | 11 | 188 | 3.2 | 4.8 | 0.00 | 0.00 | 0.00 | 35 | 730.4 |
| 20260510034303 | 10 | 193 | 3.2 | 3.2 | 0.00 | 0.00 | 0.00 | 37 | 730.4 |
| 20260510033803 | 10 | 227 | 0.0 | 1.6 | 0.00 | 0.00 | 0.00 | 36 | 730.4 |
| 20260510033303 | 11 | 234 | 0.0 | 3.2 | 0.00 | 0.00 | 0.00 | 36 | 730.4 |
| 20260510032803 | 11 | 195 | 3.2 | 6.4 | 0.00 | 0.00 | 0.00 | 38 | 730.4 |
| 20260510032308 | 11 | 178 | 4.8 | 6.4 | 0.00 | 0.00 | 0.00 | 40 | 730.1 |
| 20260510031803 | 11 | 182 | 6.4 | 8.0 | 0.00 | 0.00 | 0.00 | 34 | 730.1 |
| 20260510031303 | 11 | 171 | 6.4 | 8.0 | 0.00 | 0.00 | 0.00 | 33 | 730.1 |
| 20260510030803 | 10 | 164 | 4.8 | 9.7 | 0.00 | 0.00 | 0.00 | 33 | 730.1 |
| 20260510030303 | 10 | 168 | 8.0 | 9.7 | 0.00 | 0.00 | 0.00 | 34 | 730.1 |
| 20260510025806 | 11 | 177 | 6.4 | 9.7 | 0.00 | 0.00 | 0.00 | 37 | 730.1 |
| 20260510025306 | 11 | 166 | 6.4 | 9.7 | 0.00 | 0.00 | 0.00 | 41 | 730.1 |
| 20260510024803 | 11 | 181 | 6.4 | 9.7 | 0.00 | 0.00 | 0.00 | 42 | 729.8 |
| 20260510024303 | 11 | 183 | 6.4 | 8.0 | 0.00 | 0.00 | 0.00 | 42 | 730.1 |
| 20260510023808 | 11 | 188 | 4.8 | 6.4 | 0.00 | 0.00 | 0.00 | 42 | 729.8 |
| 20260510023303 | 11 | 192 | 4.8 | 6.4 | 0.00 | 0.00 | 0.00 | 42 | 729.8 |
| 20260510022803 | 11 | 212 | 1.6 | 4.8 | 0.00 | 0.00 | 0.00 | 42 | 729.8 |
| 20260510022306 | 12 | 212 | 1.6 | 4.8 | 0.00 | 0.00 | 0.00 | 42 | 730.1 |
| 20260510021804 | 12 | 128 | 0.0 | 1.6 | 0.00 | 0.00 | 0.00 | 42 | 729.8 |
| 20260510021303 | 12 | 299 | 0.0 | 3.2 | 0.00 | 0.00 | 0.00 | 42 | 729.8 |
| 20260510020806 | 12 | 194 | 1.6 | 3.2 | 0.00 | 0.00 | 0.00 | 42 | 729.8 |
| 20260510020303 | 12 | 172 | 0.0 | 1.6 | 0.00 | 0.00 | 0.00 | 42 | 729.8 |
| 20260510015803 | 12 | 275 | 0.0 | 9.7 | 0.00 | 0.00 | 0.00 | 42 | 729.8 |
| 20260510015306 | 13 | 315 | 1.6 | 8.0 | 0.00 | 0.00 | 0.00 | 42 | 729.8 |
| 20260510014803 | 13 | 105 | 1.6 | 4.8 | 0.00 | 0.00 | 0.00 | 42 | 729.8 |
| 20260510014303 | 13 | 313 | 1.6 | 8.0 | 0.00 | 0.00 | 0.00 | 42 | 729.8 |
| 20260510013803 | 13 | 11 | 1.6 | 6.4 | 0.00 | 0.00 | 0.00 | 42 | 729.8 |
| 20260510013303 | 13 | 330 | 4.8 | 11.3 | 0.00 | 0.00 | 0.00 | 41 | 729.8 |
| 20260510012803 | 13 | 304 | 3.2 | 8.0 | 0.00 | 0.00 | 0.00 | 41 | 729.8 |
| 20260510012306 | 13 | 324 | 4.8 | 6.4 | 0.00 | 0.00 | 0.00 | 41 | 729.8 |
| 20260510011803 | 13 | 293 | 1.6 | 8.0 | 0.00 | 0.00 | 0.00 | 42 | 729.8 |
| 20260510011303 | 13 | 325 | 4.8 | 11.3 | 0.00 | 0.00 | 0.00 | 41 | 729.8 |
| 20260510010803 | 14 | 334 | 4.8 | 9.7 | 0.00 | 0.00 | 0.00 | 41 | 729.8 |
| 20260510010306 | 14 | 353 | 4.8 | 9.7 | 0.00 | 0.00 | 0.00 | 40 | 730.1 |
| 20260510005803 | 14 | 337 | 6.4 | 9.7 | 0.00 | 0.00 | 0.00 | 39 | 729.8 |
| 20260510005306 | 15 | 343 | 6.4 | 11.3 | 0.00 | 0.00 | 0.00 | 35 | 729.8 |
| 20260510004803 | 14 | 349 | 4.8 | 12.9 | 0.00 | 0.00 | 0.00 | 35 | 729.8 |
| 20260510004306 | 15 | 347 | 6.4 | 12.9 | 0.00 | 0.00 | 0.00 | 40 | 730.1 |
| 20260510003803 | 15 | 347 | 4.8 | 8.0 | 0.00 | 0.00 | 0.00 | 39 | 730.1 |
| 20260510003306 | 14 | 280 | 1.6 | 12.9 | 0.00 | 0.00 | 0.00 | 40 | 730.1 |
| 20260510002806 | 15 | 324 | 8.0 | 16.1 | 0.00 | 0.00 | 0.00 | 39 | 729.8 |
| 20260510002306 | 15 | 329 | 4.8 | 11.3 | 0.00 | 0.00 | 0.00 | 39 | 730.1 |
| 20260510001803 | 15 | 300 | 3.2 | 17.7 | 0.00 | 0.00 | 0.00 | 39 | 730.1 |
| 20260510001303 | 15 | 318 | 3.2 | 12.9 | 0.00 | 0.00 | 0.00 | 40 | 730.1 |
| 20260510000803 | 15 | 325 | 6.4 | 16.1 | 0.00 | 0.00 | 0.00 | 40 | 730.1 |
| 20260510000306 | 15 | 299 | 4.8 | 14.5 | 0.00 | 0.00 | 0.00 | 39 | 730.1 |
| 20260509235806 | 15 | 323 | 8.0 | 17.7 | 0.00 | 0.00 | 0.00 | 39 | 730.1 |
| 20260509235306 | 16 | 324 | 4.8 | 16.1 | 0.00 | 0.00 | 0.00 | 37 | 730.1 |
| 20260509234803 | 17 | 179 | 0.0 | 9.7 | 0.00 | 0.00 | 0.00 | 31 | 730.1 |
| 20260509234306 | 16 | 315 | 6.4 | 16.1 | 0.00 | 0.00 | 0.00 | 30 | 730.1 |
| 20260509233803 | 16 | 193 | 1.6 | 8.0 | 0.00 | 0.00 | 0.00 | 34 | 730.1 |
| 20260509233303 | 15 | 141 | 1.6 | 9.7 | 0.00 | 0.00 | 0.00 | 32 | 730.1 |
| 20260509232803 | 15 | 4 | 6.4 | 16.1 | 0.00 | 0.00 | 0.00 | 32 | 730.1 |
| 20260509232306 | 15 | 11 | 6.4 | 16.1 | 0.00 | 0.00 | 0.00 | 31 | 730.1 |
| 20260509231806 | 16 | 345 | 6.4 | 14.5 | 0.00 | 0.00 | 0.00 | 31 | 730.1 |
| 20260509231303 | 15 | 323 | 3.2 | 11.3 | 0.00 | 0.00 | 0.00 | 32 | 730.4 |
| 20260509230806 | 16 | 351 | 3.2 | 9.7 | 0.00 | 0.00 | 0.00 | 31 | 730.4 |
| 20260509230303 | 15 | 357 | 6.4 | 19.3 | 0.00 | 0.00 | 0.00 | 31 | 730.4 |
| 20260509225803 | 15 | 336 | 9.7 | 17.7 | 0.00 | 0.00 | 0.00 | 31 | 730.4 |
| 20260509225305 | 15 | 333 | 4.8 | 11.3 | 0.00 | 0.00 | 0.00 | 31 | 730.4 |
| 20260509224806 | 15 | 341 | 4.8 | 11.3 | 0.00 | 0.00 | 0.00 | 31 | 730.4 |
| 20260509224303 | 16 | 338 | 4.8 | 11.3 | 0.00 | 0.00 | 0.00 | 30 | 730.4 |
| 20260509223806 | 16 | 248 | 1.6 | 9.7 | 0.00 | 0.00 | 0.00 | 32 | 730.4 |
| 20260509223303 | 15 | 341 | 3.2 | 12.9 | 0.00 | 0.00 | 0.00 | 31 | 730.4 |
| 20260509222803 | 16 | 131 | 3.2 | 20.9 | 0.00 | 0.00 | 0.00 | 32 | 730.4 |
| 20260509222306 | 17 | 172 | 6.4 | 12.9 | 0.00 | 0.00 | 0.00 | 30 | 730.4 |
| 20260509221803 | 17 | 323 | 3.2 | 8.0 | 0.00 | 0.00 | 0.00 | 29 | 730.4 |
| 20260509221303 | 16 | 242 | 0.0 | 11.3 | 0.00 | 0.00 | 0.00 | 29 | 730.4 |
| 20260509220806 | 15 | 31 | 4.8 | 19.3 | 0.00 | 0.00 | 0.00 | 29 | 730.8 |
| 20260509220303 | 16 | 295 | 3.2 | 12.9 | 0.00 | 0.00 | 0.00 | 29 | 730.8 |
| 20260509215803 | 15 | 356 | 4.8 | 17.7 | 0.00 | 0.00 | 0.00 | 29 | 730.8 |
| 20260509215306 | 15 | 40 | 4.8 | 9.7 | 0.00 | 0.00 | 0.00 | 29 | 730.8 |
| 20260509214803 | 15 | 93 | 1.6 | 12.9 | 0.00 | 0.00 | 0.00 | 29 | 730.8 |
| 20260509214303 | 16 | 333 | 3.2 | 12.9 | 0.00 | 0.00 | 0.00 | 27 | 730.8 |
| 20260509213803 | 16 | 43 | 1.6 | 12.9 | 0.00 | 0.00 | 0.00 | 28 | 730.8 |
| 20260509213303 | 15 | 358 | 3.2 | 11.3 | 0.00 | 0.00 | 0.00 | 28 | 730.8 |
| 20260509212806 | 16 | 254 | 3.2 | 8.0 | 0.00 | 0.00 | 0.00 | 28 | 730.8 |
| 20260509212305 | 17 | 58 | 1.6 | 11.3 | 0.00 | 0.00 | 0.00 | 26 | 731.1 |
| 20260509211803 | 17 | 135 | 1.6 | 11.3 | 0.00 | 0.00 | 0.00 | 26 | 730.8 |
| 20260509211303 | 17 | 161 | 3.2 | 11.3 | 0.00 | 0.00 | 0.00 | 25 | 731.1 |
| 20260509210803 | 17 | 172 | 1.6 | 11.3 | 0.00 | 0.00 | 0.00 | 25 | 731.1 |
| 20260509210303 | 17 | 64 | 1.6 | 16.1 | 0.00 | 0.00 | 0.00 | 27 | 731.1 |
| 20260509205803 | 16 | 199 | 6.4 | 17.7 | 0.00 | 0.00 | 0.00 | 25 | 731.1 |
| 20260509205306 | 16 | 178 | 8.0 | 12.9 | 0.00 | 0.00 | 0.00 | 24 | 731.1 |
| 20260509204806 | 16 | 224 | 3.2 | 20.9 | 0.00 | 0.00 | 0.00 | 25 | 731.1 |
| 20260509204303 | 16 | 227 | 1.6 | 16.1 | 0.00 | 0.00 | 0.00 | 25 | 731.1 |
| 20260509203806 | 16 | 205 | 4.8 | 12.9 | 0.00 | 0.00 | 0.00 | 24 | 731.1 |
| 20260509203303 | 16 | 194 | 4.8 | 14.5 | 0.00 | 0.00 | 0.00 | 24 | 731.4 |
| 20260509202803 | 17 | 241 | 3.2 | 14.5 | 0.00 | 0.00 | 0.00 | 24 | 731.1 |
| 20260509202306 | 16 | 171 | 3.2 | 8.0 | 0.00 | 0.00 | 0.00 | 23 | 731.4 |
| 20260509201803 | 16 | 13 | 3.2 | 16.1 | 0.00 | 0.00 | 0.00 | 23 | 731.4 |
| 20260509201303 | 17 | 118 | 6.4 | 12.9 | 0.00 | 0.00 | 0.00 | 23 | 731.4 |
| 20260509200803 | 17 | 191 | 3.2 | 9.7 | 0.00 | 0.00 | 0.00 | 23 | 731.4 |
| 20260509200303 | 17 | 146 | 1.6 | 14.5 | 0.00 | 0.00 | 0.00 | 24 | 731.4 |
| 20260509195803 | 17 | 189 | 0.0 | 12.9 | 0.00 | 0.00 | 0.00 | 25 | 731.4 |
| 20260509195306 | 17 | 306 | 1.6 | 12.9 | 0.00 | 0.00 | 0.00 | 25 | 731.4 |
| 20260509194803 | 16 | 197 | 4.8 | 12.9 | 0.00 | 0.00 | 0.00 | 25 | 731.4 |
| 20260509194303 | 17 | 205 | 3.2 | 11.3 | 0.00 | 0.00 | 0.00 | 25 | 731.4 |
| 20260509193803 | 17 | 194 | 4.8 | 9.7 | 0.00 | 0.00 | 0.00 | 24 | 731.4 |
| 20260509193303 | 17 | 211 | 3.2 | 8.0 | 0.00 | 0.00 | 0.00 | 25 | 731.4 |
| 20260509192803 | 16 | 206 | 4.8 | 14.5 | 0.00 | 0.00 | 0.00 | 25 | 731.4 |
| 20260509192306 | 16 | 130 | 1.6 | 11.3 | 0.00 | 0.00 | 0.00 | 27 | 731.4 |
| 20260509191803 | 17 | 86 | 3.2 | 9.7 | 0.00 | 0.00 | 0.00 | 26 | 731.4 |
| 20260509191303 | 17 | 201 | 1.6 | 11.3 | 0.00 | 0.00 | 0.00 | 25 | 731.4 |
| 20260509190803 | 16 | 208 | 4.8 | 12.9 | 0.00 | 0.00 | 0.00 | 25 | 731.4 |
| 20260509190306 | 17 | 203 | 6.4 | 22.5 | 0.00 | 0.00 | 0.00 | 24 | 731.4 |
| 20260509185803 | 17 | 161 | 1.6 | 8.0 | 0.00 | 0.00 | 0.00 | 28 | 731.4 |
| 20260509185306 | 16 | 194 | 4.8 | 16.1 | 0.00 | 0.00 | 0.00 | 25 | 731.4 |
| 20260509184803 | 16 | 117 | 1.6 | 11.3 | 0.00 | 0.00 | 0.00 | 25 | 731.4 |
| 20260509184306 | 16 | 187 | 6.4 | 17.7 | 0.00 | 0.00 | 0.00 | 25 | 731.4 |
| 20260509183803 | 16 | 172 | 3.2 | 12.9 | 0.00 | 0.00 | 0.00 | 25 | 731.4 |
| 20260509183303 | 16 | 197 | 1.6 | 12.9 | 0.00 | 0.00 | 0.00 | 26 | 731.4 |
| 20260509182803 | 15 | 96 | 1.6 | 14.5 | 0.00 | 0.00 | 0.00 | 26 | 731.4 |
| 20260509182307 | 16 | 199 | 6.4 | 14.5 | 0.00 | 0.00 | 0.00 | 25 | 731.4 |
| 20260509181803 | 15 | 190 | 1.6 | 12.9 | 0.00 | 0.00 | 0.00 | 26 | 731.4 |
| 20260509181303 | 16 | 214 | 4.8 | 14.5 | 0.00 | 0.00 | 0.00 | 25 | 731.4 |
| 20260509180803 | 16 | 179 | 6.4 | 19.3 | 0.00 | 0.00 | 0.00 | 26 | 731.4 |
| 20260509180303 | 15 | 172 | 4.8 | 12.9 | 0.00 | 0.00 | 0.00 | 27 | 731.4 |
| 20260509175802 | 15 | 155 | 6.4 | 17.7 | 0.00 | 0.00 | 0.00 | 26 | 731.4 |
| 20260509175306 | 15 | 147 | 6.4 | 17.7 | 0.00 | 0.00 | 0.00 | 25 | 731.4 |
| 20260509174806 | 15 | 172 | 6.4 | 14.5 | 0.00 | 0.00 | 0.00 | 25 | 731.4 |
| 20260509174303 | 16 | 215 | 3.2 | 9.7 | 0.00 | 0.00 | 0.00 | 26 | 731.4 |
| 20260509173803 | 15 | 206 | 3.2 | 16.1 | 0.00 | 0.00 | 0.00 | 26 | 731.4 |
| 20260509173303 | 15 | 180 | 8.0 | 16.1 | 0.00 | 0.00 | 0.00 | 26 | 731.4 |
| 20260509172803 | 15 | 203 | 4.8 | 14.5 | 0.00 | 0.00 | 0.00 | 26 | 731.4 |
| 20260509172306 | 14 | 188 | 4.8 | 14.5 | 0.00 | 0.00 | 0.00 | 27 | 731.4 |
| 20260509171803 | 14 | 169 | 9.7 | 16.1 | 0.00 | 0.00 | 0.00 | 26 | 731.4 |
| 20260509171303 | 13 | 138 | 6.4 | 20.9 | 0.00 | 0.00 | 0.00 | 27 | 731.4 |
| 20260509170803 | 14 | 156 | 11.3 | 20.9 | 0.00 | 0.00 | 0.00 | 27 | 731.4 |
| 20260509170303 | 14 | 178 | 11.3 | 24.1 | 0.00 | 0.00 | 0.00 | 27 | 731.4 |
| 20260509165806 | 14 | 177 | 9.7 | 19.3 | 0.00 | 0.00 | 0.00 | 28 | 731.4 |
| 20260509165306 | 13 | 177 | 8.0 | 17.7 | 0.00 | 0.00 | 0.00 | 29 | 731.4 |
| 20260509164806 | 13 | 164 | 12.9 | 22.5 | 0.00 | 0.00 | 0.00 | 28 | 731.4 |
| 20260509164303 | 13 | 193 | 9.7 | 17.7 | 0.00 | 0.00 | 0.00 | 28 | 731.1 |
| 20260509163803 | 13 | 174 | 9.7 | 19.3 | 0.00 | 0.00 | 0.00 | 29 | 731.1 |
| 20260509163303 | 13 | 180 | 11.3 | 17.7 | 0.00 | 0.00 | 0.00 | 29 | 731.1 |
| 20260509162803 | 13 | 189 | 11.3 | 22.5 | 0.00 | 0.00 | 0.00 | 29 | 731.1 |
| 20260509162307 | 13 | 195 | 8.0 | 25.7 | 0.00 | 0.00 | 0.00 | 29 | 731.1 |
| 20260509161803 | 13 | 180 | 9.7 | 17.7 | 0.00 | 0.00 | 0.00 | 30 | 731.1 |
| 20260509161303 | 13 | 180 | 11.3 | 19.3 | 0.00 | 0.00 | 0.00 | 30 | 731.1 |
| 20260509160803 | 13 | 176 | 11.3 | 17.7 | 0.00 | 0.00 | 0.00 | 29 | 731.1 |
| 20260509160303 | 13 | 182 | 8.0 | 19.3 | 0.00 | 0.00 | 0.00 | 31 | 731.1 |
| 20260509155803 | 12 | 167 | 12.9 | 24.1 | 0.00 | 0.00 | 0.00 | 32 | 730.8 |
| 20260509155306 | 12 | 165 | 17.7 | 27.4 | 0.00 | 0.00 | 0.00 | 31 | 730.8 |
| 20260509154803 | 12 | 166 | 14.5 | 30.6 | 0.00 | 0.00 | 0.00 | 32 | 730.8 |
| 20260509154303 | 12 | 163 | 16.1 | 25.7 | 0.00 | 0.00 | 0.00 | 31 | 730.8 |
| 20260509153806 | 12 | 175 | 17.7 | 27.4 | 0.00 | 0.00 | 0.00 | 33 | 730.8 |
| 20260509153303 | 12 | 169 | 14.5 | 29.0 | 0.00 | 0.00 | 0.00 | 33 | 730.8 |
| 20260509152803 | 12 | 177 | 16.1 | 25.7 | 0.00 | 0.00 | 0.00 | 32 | 730.8 |
| 20260509152305 | 12 | 170 | 16.1 | 29.0 | 0.00 | 0.00 | 0.00 | 32 | 730.8 |
| 20260509151806 | 12 | 180 | 14.5 | 22.5 | 0.00 | 0.00 | 0.00 | 32 | 730.8 |
| 20260509151306 | 12 | 168 | 14.5 | 27.4 | 0.00 | 0.00 | 0.00 | 31 | 730.8 |
| 20260509150807 | 11 | 154 | 16.1 | 37.0 | 0.00 | 0.00 | 0.00 | 32 | 730.8 |
| 20260509150306 | 11 | 167 | 20.9 | 29.0 | 0.00 | 0.00 | 0.00 | 31 | 730.8 |
| 20260509145806 | 11 | 172 | 14.5 | 30.6 | 0.00 | 0.00 | 0.00 | 32 | 730.8 |
| 20260509145306 | 11 | 170 | 16.1 | 35.4 | 0.00 | 0.00 | 0.00 | 32 | 730.4 |
| 20260509144803 | 11 | 177 | 14.5 | 30.6 | 0.00 | 0.00 | 0.00 | 32 | 730.4 |
| 20260509144303 | 11 | 166 | 17.7 | 29.0 | 0.00 | 0.00 | 0.00 | 32 | 730.4 |
| 20260509143803 | 11 | 162 | 16.1 | 32.2 | 0.00 | 0.00 | 0.00 | 32 | 730.4 |
| 20260509143303 | 11 | 167 | 20.9 | 32.2 | 0.00 | 0.00 | 0.00 | 32 | 730.4 |
| 20260509142803 | 11 | 171 | 16.1 | 27.4 | 0.00 | 0.00 | 0.00 | 31 | 730.4 |
| 20260509142307 | 11 | 169 | 14.5 | 29.0 | 0.00 | 0.00 | 0.00 | 32 | 730.4 |
| 20260509141803 | 11 | 175 | 14.5 | 29.0 | 0.00 | 0.00 | 0.00 | 31 | 730.4 |
| 20260509141303 | 11 | 170 | 16.1 | 29.0 | 0.00 | 0.00 | 0.00 | 31 | 730.4 |
| 20260509140803 | 11 | 169 | 17.7 | 27.4 | 0.00 | 0.00 | 0.00 | 31 | 730.4 |
| 20260509140303 | 11 | 169 | 17.7 | 29.0 | 0.00 | 0.00 | 0.00 | 31 | 730.4 |
| 20260509135803 | 11 | 164 | 19.3 | 30.6 | 0.00 | 0.00 | 0.00 | 32 | 730.4 |
| 20260509135305 | 11 | 172 | 16.1 | 30.6 | 0.00 | 0.00 | 0.00 | 32 | 730.4 |
| 20260509134803 | 11 | 171 | 19.3 | 29.0 | 0.00 | 0.00 | 0.00 | 32 | 730.1 |
| 20260509134303 | 10 | 170 | 19.3 | 32.2 | 0.00 | 0.00 | 0.00 | 32 | 730.1 |
| 20260509133803 | 10 | 174 | 19.3 | 35.4 | 0.00 | 0.00 | 0.00 | 32 | 730.1 |
| 20260509133306 | 11 | 174 | 20.9 | 35.4 | 0.00 | 0.00 | 0.00 | 32 | 730.1 |
| 20260509132803 | 10 | 175 | 22.5 | 33.8 | 0.00 | 0.00 | 0.00 | 33 | 730.1 |
| 20260509132306 | 10 | 178 | 19.3 | 32.2 | 0.00 | 0.00 | 0.00 | 33 | 729.8 |
| 20260509131803 | 11 | 170 | 20.9 | 33.8 | 0.00 | 0.00 | 0.00 | 33 | 730.1 |
| 20260509131302 | 11 | 180 | 20.9 | 38.6 | 0.00 | 0.00 | 0.00 | 32 | 729.8 |
| 20260509130806 | 11 | 176 | 22.5 | 33.8 | 0.00 | 0.00 | 0.00 | 32 | 729.8 |
| 20260509130303 | 11 | 175 | 20.9 | 37.0 | 0.00 | 0.00 | 0.00 | 31 | 729.8 |
| 20260509125803 | 11 | 174 | 20.9 | 37.0 | 0.00 | 0.00 | 0.00 | 31 | 729.8 |
| 20260509125307 | 11 | 173 | 22.5 | 33.8 | 0.00 | 0.00 | 0.00 | 31 | 729.8 |
| 20260509124803 | 11 | 177 | 24.1 | 38.6 | 0.00 | 0.00 | 0.00 | 31 | 729.8 |
| 20260509124303 | 11 | 176 | 20.9 | 35.4 | 0.00 | 0.00 | 0.00 | 28 | 729.8 |
| 20260509123803 | 11 | 174 | 22.5 | 37.0 | 0.00 | 0.00 | 0.00 | 26 | 729.8 |
| 20260509123303 | 11 | 172 | 22.5 | 37.0 | 0.00 | 0.00 | 0.00 | 24 | 729.8 |
| 20260509122806 | 11 | 171 | 22.5 | 35.4 | 0.00 | 0.00 | 0.00 | 23 | 729.8 |
| 20260509122306 | 10 | 175 | 20.9 | 38.6 | 0.00 | 0.00 | 0.00 | 24 | 729.8 |
| 20260509121803 | 10 | 174 | 22.5 | 32.2 | 0.00 | 0.00 | 0.00 | 25 | 729.4 |
| 20260509121302 | 10 | 170 | 22.5 | 30.6 | 0.00 | 0.00 | 0.00 | 25 | 729.8 |
| 20260509120803 | 10 | 178 | 20.9 | 30.6 | 0.00 | 0.00 | 0.00 | 27 | 729.8 |
| 20260509120303 | 10 | 178 | 17.7 | 29.0 | 0.00 | 0.00 | 0.00 | 28 | 729.8 |
| 20260509115802 | 10 | 178 | 17.7 | 29.0 | 0.00 | 0.00 | 0.00 | 28 | 729.8 |
| 20260509115306 | 10 | 174 | 17.7 | 24.1 | 0.00 | 0.00 | 0.00 | 28 | 729.8 |
| 20260509114803 | 10 | 179 | 17.7 | 25.7 | 0.00 | 0.00 | 0.00 | 28 | 729.8 |
| 20260509114303 | 10 | 178 | 16.1 | 27.4 | 0.00 | 0.00 | 0.00 | 28 | 729.8 |
| 20260509113803 | 10 | 176 | 17.7 | 29.0 | 0.00 | 0.00 | 0.00 | 28 | 729.8 |
| 20260509113303 | 10 | 184 | 12.9 | 22.5 | 0.00 | 0.00 | 0.00 | 28 | 729.8 |
| 20260509112806 | 10 | 174 | 14.5 | 22.5 | 0.00 | 0.00 | 0.00 | 28 | 729.8 |
| 20260509112307 | 10 | 175 | 14.5 | 25.7 | 0.00 | 0.00 | 0.00 | 27 | 729.8 |
| 20260509111806 | 10 | 177 | 14.5 | 22.5 | 0.00 | 0.00 | 0.00 | 27 | 729.8 |
| 20260509111303 | 10 | 170 | 14.5 | 22.5 | 0.00 | 0.00 | 0.00 | 26 | 730.1 |
| 20260509110803 | 10 | 178 | 12.9 | 20.9 | 0.00 | 0.00 | 0.00 | 25 | 730.1 |
| 20260509110303 | 10 | 166 | 12.9 | 19.3 | 0.00 | 0.00 | 0.00 | 25 | 730.1 |
| 20260509105803 | 11 | 165 | 11.3 | 14.5 | 0.00 | 0.00 | 0.00 | 23 | 730.1 |
| 20260509105306 | 11 | 163 | 9.7 | 16.1 | 0.00 | 0.00 | 0.00 | 22 | 730.1 |
| 20260509104803 | 11 | 163 | 11.3 | 16.1 | 0.00 | 0.00 | 0.00 | 22 | 730.1 |
| 20260509104303 | 11 | 154 | 11.3 | 17.7 | 0.00 | 0.00 | 0.00 | 22 | 730.1 |
| 20260509103806 | 11 | 154 | 6.4 | 12.9 | 0.00 | 0.00 | 0.00 | 21 | 730.1 |
| 20260509103303 | 11 | 151 | 6.4 | 14.5 | 0.00 | 0.00 | 0.00 | 21 | 730.1 |
| 20260509102803 | 11 | 158 | 8.0 | 16.1 | 0.00 | 0.00 | 0.00 | 20 | 730.1 |
| 20260509102305 | 11 | 146 | 8.0 | 12.9 | 0.00 | 0.00 | 0.00 | 20 | 730.4 |
| 20260509101803 | 11 | 139 | 4.8 | 12.9 | 0.00 | 0.00 | 0.00 | 20 | 730.1 |
| 20260509101303 | 11 | 150 | 6.4 | 11.3 | 0.00 | 0.00 | 0.00 | 21 | 730.4 |
| 20260509100803 | 11 | 156 | 6.4 | 9.7 | 0.00 | 0.00 | 0.00 | 21 | 730.4 |
| 20260509100303 | 11 | 168 | 8.0 | 11.3 | 0.00 | 0.00 | 0.00 | 22 | 730.4 |
| 20260509095803 | 11 | 166 | 6.4 | 8.0 | 0.00 | 0.00 | 0.00 | 23 | 730.4 |
| 20260509095305 | 11 | 166 | 6.4 | 8.0 | 0.00 | 0.00 | 0.00 | 23 | 730.4 |
| 20260509094803 | 11 | 150 | 3.2 | 6.4 | 0.00 | 0.00 | 0.00 | 22 | 730.4 |
| 20260509094306 | 11 | 129 | 3.2 | 6.4 | 0.00 | 0.00 | 0.00 | 21 | 730.4 |
| 20260509093803 | 11 | 120 | 4.8 | 8.0 | 0.00 | 0.00 | 0.00 | 21 | 730.4 |
| 20260509093303 | 11 | 124 | 3.2 | 8.0 | 0.00 | 0.00 | 0.00 | 21 | 730.4 |
| 20260509092803 | 11 | 113 | 4.8 | 8.0 | 0.00 | 0.00 | 0.00 | 21 | 730.4 |
| 20260509092305 | 11 | 87 | 4.8 | 8.0 | 0.00 | 0.00 | 0.00 | 22 | 730.4 |
| 20260509091803 | 11 | 98 | 4.8 | 8.0 | 0.00 | 0.00 | 0.00 | 23 | 730.4 |
| 20260509091306 | 11 | 106 | 4.8 | 11.3 | 0.00 | 0.00 | 0.00 | 25 | 730.4 |
| 20260509090803 | 11 | 111 | 4.8 | 9.7 | 0.00 | 0.00 | 0.00 | 23 | 730.4 |
| 20260509090303 | 11 | 96 | 6.4 | 9.7 | 0.00 | 0.00 | 0.00 | 24 | 730.4 |
| 20260509085806 | 11 | 102 | 4.8 | 9.7 | 0.00 | 0.00 | 0.00 | 23 | 730.4 |
| 20260509085306 | 11 | 90 | 4.8 | 12.9 | 0.00 | 0.00 | 0.00 | 23 | 730.8 |
| 20260509084803 | 11 | 86 | 4.8 | 9.7 | 0.00 | 0.00 | 0.00 | 23 | 730.8 |
| 20260509084306 | 11 | 72 | 1.6 | 9.7 | 0.00 | 0.00 | 0.00 | 24 | 730.4 |
| 20260509083806 | 11 | 85 | 3.2 | 11.3 | 0.00 | 0.00 | 0.00 | 23 | 730.8 |
| 20260509083303 | 11 | 102 | 4.8 | 11.3 | 0.00 | 0.00 | 0.00 | 24 | 730.8 |
| 20260509082803 | 11 | 69 | 6.4 | 14.5 | 0.00 | 0.00 | 0.00 | 25 | 730.8 |
| 20260509082307 | 11 | 94 | 6.4 | 14.5 | 0.00 | 0.00 | 0.00 | 24 | 730.8 |
| 20260509081803 | 11 | 86 | 9.7 | 14.5 | 0.00 | 0.00 | 0.00 | 25 | 730.8 |
| 20260509081303 | 11 | 76 | 3.2 | 12.9 | 0.00 | 0.00 | 0.00 | 28 | 730.8 |
| 20260509080803 | 11 | 80 | 6.4 | 14.5 | 0.00 | 0.00 | 0.00 | 27 | 730.8 |
| 20260509080303 | 11 | 85 | 4.8 | 12.9 | 0.00 | 0.00 | 0.00 | 30 | 730.8 |
| 20260509075802 | 11 | 61 | 6.4 | 12.9 | 0.00 | 0.00 | 0.00 | 30 | 730.8 |
| 20260509075306 | 11 | 66 | 3.2 | 12.9 | 0.00 | 0.00 | 0.00 | 32 | 730.8 |
| 20260509074802 | 11 | 67 | 8.0 | 16.1 | 0.00 | 0.00 | 0.00 | 33 | 730.8 |
| 20260509074303 | 11 | 37 | 3.2 | 11.3 | 0.00 | 0.00 | 0.00 | 32 | 731.1 |
| 20260509073806 | 11 | 73 | 6.4 | 14.5 | 0.00 | 0.00 | 0.00 | 32 | 731.1 |
| 20260509073306 | 11 | 73 | 8.0 | 14.5 | 0.00 | 0.00 | 0.00 | 33 | 731.1 |
| 20260509072803 | 11 | 69 | 4.8 | 11.3 | 0.00 | 0.00 | 0.00 | 33 | 731.1 |
| 20260509072306 | 11 | 72 | 6.4 | 12.9 | 0.00 | 0.00 | 0.00 | 33 | 731.1 |
| 20260509071803 | 11 | 70 | 6.4 | 11.3 | 0.00 | 0.00 | 0.00 | 33 | 731.1 |
| 20260509071303 | 11 | 76 | 3.2 | 12.9 | 0.00 | 0.00 | 0.00 | 33 | 731.1 |
| 20260509070803 | 11 | 51 | 4.8 | 16.1 | 0.00 | 0.00 | 0.00 | 32 | 731.1 |
| 20260509070303 | 11 | 79 | 4.8 | 11.3 | 0.00 | 0.00 | 0.00 | 32 | 731.1 |
| 20260509065806 | 11 | 81 | 3.2 | 12.9 | 0.00 | 0.00 | 0.00 | 32 | 731.1 |
| 20260509065306 | 11 | 87 | 3.2 | 12.9 | 0.00 | 0.00 | 0.00 | 32 | 731.1 |
| 20260509064803 | 11 | 59 | 6.4 | 12.9 | 0.00 | 0.00 | 0.00 | 33 | 731.1 |
| 20260509064306 | 11 | 66 | 3.2 | 11.3 | 0.00 | 0.00 | 0.00 | 35 | 731.4 |
| 20260509063802 | 11 | 73 | 3.2 | 12.9 | 0.00 | 0.00 | 0.00 | 35 | 731.4 |
| 20260509063303 | 11 | 62 | 4.8 | 14.5 | 0.00 | 0.00 | 0.00 | 35 | 731.4 |
| 20260509062803 | 11 | 73 | 6.4 | 11.3 | 0.00 | 0.00 | 0.00 | 35 | 731.4 |
| 20260509062305 | 11 | 72 | 3.2 | 12.9 | 0.00 | 0.00 | 0.00 | 37 | 731.4 |
| 20260509061803 | 11 | 39 | 4.8 | 11.3 | 0.00 | 0.00 | 0.00 | 37 | 731.4 |
| 20260509061303 | 11 | 8 | 4.8 | 11.3 | 0.00 | 0.00 | 0.00 | 38 | 731.4 |
| 20260509060802 | 11 | 354 | 3.2 | 8.0 | 0.00 | 0.00 | 0.00 | 38 | 731.4 |
| 20260509060303 | 11 | 344 | 4.8 | 9.7 | 0.00 | 0.00 | 0.00 | 39 | 731.4 |
| 20260509055805 | 11 | 249 | 1.6 | 9.7 | 0.00 | 0.00 | 0.00 | 38 | 731.4 |
| 20260509055306 | 11 | 54 | 4.8 | 11.3 | 0.00 | 0.00 | 0.00 | 38 | 731.4 |
| 20260509054803 | 11 | 24 | 4.8 | 9.7 | 0.00 | 0.00 | 0.00 | 38 | 731.4 |
| 20260509054303 | 11 | 338 | 1.6 | 6.4 | 0.00 | 0.00 | 0.00 | 37 | 731.4 |
| 20260509053803 | 11 | 293 | 1.6 | 6.4 | 0.00 | 0.00 | 0.00 | 37 | 731.4 |
| 20260509053302 | 11 | 322 | 3.2 | 8.0 | 0.00 | 0.00 | 0.00 | 37 | 731.4 |
| 20260509052803 | 11 | 25 | 3.2 | 11.3 | 0.00 | 0.00 | 0.00 | 37 | 731.4 |
| 20260509052306 | 11 | 19 | 6.4 | 9.7 | 0.00 | 0.00 | 0.00 | 39 | 731.4 |
| 20260509051806 | 10 | 352 | 3.2 | 8.0 | 0.00 | 0.00 | 0.00 | 44 | 731.4 |
| 20260509051302 | 10 | 344 | 4.8 | 8.0 | 0.00 | 0.00 | 0.00 | 45 | 731.4 |
| 20260509050802 | 10 | 348 | 4.8 | 6.4 | 0.00 | 0.00 | 0.00 | 44 | 731.4 |
| 20260509050306 | 10 | 320 | 3.2 | 4.8 | 0.00 | 0.00 | 0.00 | 45 | 731.4 |
| 20260509045803 | 10 | 353 | 1.6 | 4.8 | 0.00 | 0.00 | 0.00 | 44 | 731.4 |
| 20260509045306 | 10 | 347 | 3.2 | 6.4 | 0.00 | 0.00 | 0.00 | 43 | 731.4 |
| 20260509044802 | 10 | 345 | 3.2 | 6.4 | 0.00 | 0.00 | 0.00 | 43 | 731.4 |
| 20260509044303 | 10 | 341 | 3.2 | 4.8 | 0.00 | 0.00 | 0.00 | 42 | 731.4 |
| 20260509043803 | 10 | 336 | 1.6 | 3.2 | 0.00 | 0.00 | 0.00 | 42 | 731.4 |
| 20260509043303 | 10 | 343 | 1.6 | 3.2 | 0.00 | 0.00 | 0.00 | 42 | 731.4 |
| 20260509042803 | 10 | 334 | 1.6 | 3.2 | 0.00 | 0.00 | 0.00 | 41 | 731.1 |
| 20260509042306 | 10 | 346 | 3.2 | 4.8 | 0.00 | 0.00 | 0.00 | 41 | 731.4 |
| 20260509041803 | 10 | 354 | 3.2 | 4.8 | 0.00 | 0.00 | 0.00 | 41 | 731.1 |
| 20260509041303 | 10 | 341 | 1.6 | 1.6 | 0.00 | 0.00 | 0.00 | 41 | 731.1 |